NKS973 KFLL-KMSY

Flight info

Callsign NKS973
Flight time N/A
Altitude 36000
Route BNICE2 DOLIE Y280 REDFN Q105 HRV
Aircraft A321/M-SDE3FGHIRWY/LB1

Departure

Time 2026-05-04 14:46
Airport Fort Lauderdale Hollywood International Airport (KFLL)

Arrival

Time N/A
Airport Louis Armstrong New Orleans International Airport (KMSY)
Time Latitude Longitude Altitude Speed Heading
2026-05-04 14:45 26.26833 -80.25489 12605 ft 311 kts 278°
2026-05-04 14:46 26.27171 -80.27885 13268 ft 312 kts 278°
2026-05-04 14:46 26.27508 -80.30260 13908 ft 313 kts 278°
2026-05-04 14:46 26.27851 -80.32679 14512 ft 315 kts 278°
2026-05-04 14:46 26.28189 -80.35072 15073 ft 317 kts 278°
2026-05-04 14:47 26.28536 -80.37526 15649 ft 319 kts 278°
2026-05-04 14:47 26.28881 -80.39957 16168 ft 322 kts 278°
2026-05-04 14:47 26.29232 -80.42451 16672 ft 325 kts 278°
2026-05-04 14:47 26.29589 -80.44967 17202 ft 327 kts 278°
2026-05-04 14:48 26.29944 -80.47482 17717 ft 329 kts 278°
2026-05-04 14:48 26.30299 -80.49998 18227 ft 331 kts 278°
2026-05-04 14:48 26.30652 -80.52522 18695 ft 334 kts 278°
2026-05-04 14:48 26.31015 -80.55093 19186 ft 336 kts 278°
2026-05-04 14:49 26.31378 -80.57686 19699 ft 337 kts 278°
2026-05-04 14:49 26.31738 -80.60256 20154 ft 339 kts 278°
2026-05-04 14:49 26.32103 -80.62861 20596 ft 341 kts 278°
2026-05-04 14:49 26.32473 -80.65502 21006 ft 344 kts 278°
2026-05-04 14:50 26.32842 -80.68153 21327 ft 350 kts 278°
2026-05-04 14:50 26.33219 -80.70851 21743 ft 353 kts 278°
2026-05-04 14:50 26.33592 -80.73550 22193 ft 354 kts 278°
2026-05-04 14:50 26.33969 -80.76253 22605 ft 356 kts 278°